Terug naar catalogus

PAGEOS 1 DEB

ActiefPO
NORAD 2511·DEBRIS·🇺🇸 United States

Gelanceerd Jun 24, 1966 vanaf Vandenberg Space Force Base

Loading…

Volgende Passages (komende 24 uur)

TLE

VersSource: Space-Track

Epoch: Sep 13, 2026, 07:08 UTC

1 02511U 66056D   26256.29759662 -.00000020  00000-0 -21835-1 0  9993
2 02511  87.0103 217.1005 0016588 131.0600 229.1642  7.93368910359576

Volg PAGEOS 1 DEB in realtime met AllMySat

Download on the App Store